Regional Weather Roundup
Issued by NWS Northern Indiana

Home | Current Version | Previous Version | Text Only | Print | Product List | Glossary Off
Versions: 1 2 3 4 5 6 7 8 9 10 11 12 13 14 15 16 17 18 19 20 21 22 23 24 25 26 27 28 29 30 31 32 33 34 35 36 37 38 39 40 41 42 43 44 45 46 47 48 49 50

000
ASUS43 KIWX 300000
RWRIWX

KIWX WEATHER ROUNDUP
NATIONAL WEATHER SERVICE NORTHERN INDIANA
800 PM EDT WED OCT 29 2014

NOTE: "FAIR" INDICATES FEW OR NO CLOUDS BELOW 12,000 FEET WITH NO
SIGNIFICANT WEATHER AND/OR OBSTRUCTIONS TO VISIBILITY.

* THESE STATIONS ARE NOT UNDER NWS QUALITY CONTROL. THEY ALSO MAY NOT
  REPORT WEATHER SUCH AS PRECIPITATION OR FOG.

INZ001>027-300100-
NORTHERN INDIANA

CITY           SKY/WX    TMP DP  RH WIND       PRES   REMARKS
SOUTH BEND     CLOUDY    46  34  62 NW5       30.13R
6HR MIN TEMP:  45; 6HR MAX TEMP:  47; 6HR PCP: TRACE;

ELKHART*       CLOUDY    43  39  87 W5        30.12R
GOSHEN         CLOUDY    43  39  86 W5        30.12R
6HR MIN TEMP:  43; 6HR MAX TEMP:  46; 6HR PCP:  0.01;

WARSAW*        CLOUDY    43  34  70 W5        30.12R
ANGOLA*        CLOUDY    43  37  81 W6        30.10R
FORT WAYNE     CLOUDY    45  35  68 NW7       30.13R
6HR MIN TEMP:  45; 6HR MAX TEMP:  48;


$$
INZ028>050-300100-
CENTRAL INDIANA

CITY           SKY/WX    TMP DP  RH WIND       PRES   REMARKS
LAFAYETTE      CLOUDY    44  34  67 W3        30.16R
6HR MIN TEMP:  44; 6HR MAX TEMP:  47;

KOKOMO*        CLOUDY    45  34  65 W7        30.15R
6HR MIN TEMP:  45; 6HR MAX TEMP:  46;

MUNCIE*        CLOUDY    45  35  68 NW8       30.13R
6HR MIN TEMP:  45; 6HR MAX TEMP:  48;

INDIANAPOLIS   CLOUDY    46  33  60 NW9       30.14R
6HR MIN TEMP:  46; 6HR MAX TEMP:  54;


$$
MIZ043>046-050>051-056>058-064>065-071>073-077>080-300100-
SOUTHWEST LOWER MICHIGAN

CITY           SKY/WX    TMP DP  RH WIND       PRES   REMARKS
BATTLE CREEK   CLOUDY    44  37  76 W7        30.09R
6HR MIN TEMP:  43; 6HR MAX TEMP:  47; 6HR PCP:  0.01;

BENTON HARBOR  CLOUDY    46  32  58 NW6       30.11R
6HR MIN TEMP:  45; 6HR MAX TEMP:  46; 6HR PCP: TRACE;

COLDWATER*     CLOUDY    44  40  86 W6        30.10R
6HR MIN TEMP:  43; 6HR MAX TEMP:  46;

HILLSDALE*     CLOUDY    41  40  95 W3        30.08R
HOLLAND        CLOUDY    48  37  65 VRB6      30.10R
6HR MIN TEMP:  47; 6HR MAX TEMP:  49; 6HR PCP: TRACE;

GRAND RAPIDS   MOCLDY    44  36  73 NW8       30.09R
6HR MIN TEMP:  44; 6HR MAX TEMP:  48; 6HR PCP: TRACE;

KALAMAZOO      CLOUDY    45  37  73 W5        30.10R
6HR MIN TEMP:  44; 6HR MAX TEMP:  46; 6HR PCP: TRACE;

STURGIS*       CLOUDY    43  39  87 W5        30.10R
THREE RIVERS*  CLOUDY    44  39  82 SW3       30.11R
6HR MIN TEMP:  43; 6HR MAX TEMP:  45;


$$
OHZ001>008-015>018-024>025-300100-
NORTHWEST OHIO

CITY           SKY/WX    TMP DP  RH WIND       PRES   REMARKS
DEFIANCE       CLOUDY    44  38  79 VRB5      30.11R
6HR MIN TEMP:  44; 6HR MAX TEMP:  49; 6HR PCP: TRACE;

FINDLAY        CLOUDY    47  35  63 W12       30.08R
6HR MIN TEMP:  47; 6HR MAX TEMP:  51;

TOLEDO EXPRESS CLOUDY    44  37  76 W14       30.08R
6HR MIN TEMP:  44; 6HR MAX TEMP:  49;

TOLEDO METCALF CLOUDY    45  36  70 W10       30.09R
6HR MIN TEMP:  45; 6HR MAX TEMP:  51; 6HR PCP: TRACE;

LIMA           CLOUDY    46  35  65 W9        30.10R
6HR MIN TEMP:  46; 6HR MAX TEMP:  50;


$$
AND FOR LAKE MICHIGAN COASTAL AND OPEN LAKE BUOY OBSERVATIONS

STATION/POSITION TEMP    WIND        PRES    VSBY  WAVE
                 AIR SEA DIR/SP/G                  HT/PER
                 (F)     (DEG/KT/KT) (MB)    (MI)  (FT/S)
CALUMET HARBOR    47     250/  2/  5 1018.9R
MICHIGAN CITY     48     290/ 12/ 15   N/A
SAINT JOSEPH      49     310/ 12/ 18 1020.0R
SOUTH LAKE BUOY   47 53  300/ 14/ 17 1019.6R         3/ 6

$$
&&



USA.gov is the U.S. government's official web portal to all federal, state and local government web resources and services.